Location: Kerentrech
(47.7567°N, 3.3595°W)
Time: 11:51:07
(UTC+00:00)

STARLINK-1178 - Pass Details

Date: 17 February 2020
Orbit: 554 x 555 km, 53.0° (Epoch: 09 April)

Event Time Altitude Azimuth Distance (km) Brightness Sun altitude
Exits shadow 05:05:09 41° 351° (N) 810 4.4 -22.8°
Drops below altitude 10° 05:09:10 10° 65° (ENE) 1,835 7.3 -22.1°
Enters shadow 06:05:16 -71° 269° (W) 12,652 10.4 -12.7°
Maximum altitude 06:45:25 48° 14° (NNE) 732 4.3 -6.0°
